Simultaneous Nadir Overpasses (SNOs) Predictions

Prediction of SNOs between NOAA-20 and METOP-C Satellite Orbit:

Table of predicted SNOs for the next 14.0 days since TLE Epoch: 4/26/2021
Index Date (NOAA-20) Time (NOAA-20) Lat,Lon (NOAA-20) SZA (NOAA-20 ) Date (METOP-C) Time (METOP-C) Lat,Lon (METOP-C) SZA (METOP-C ) Distance(km) Time Diff (sec)
1 05/09/2021 03:36:07 73.46, 116.27 56.19 05/09/2021 03:37:13 73.39, 119.29 55.99 96.19 66
2 05/09/2021 04:26:49 -73.36, -76.17 123.93 05/09/2021 04:27:56 -73.32, -73.53 124.09 84.42 67
3 05/09/2021 05:17:31 73.17, 91.56 55.85 05/09/2021 05:18:40 73.12, 93.35 55.71 58.00 69
4 05/09/2021 06:08:13 -73.06,-100.90 124.28 05/09/2021 06:09:24 -73.00, -99.57 124.41 43.50 71
5 05/09/2021 06:58:55 72.87, 66.83 55.51 05/09/2021 07:00:08 72.79, 67.32 55.40 18.22 73
6 05/09/2021 07:49:37 -72.76,-125.64 124.62 05/09/2021 07:50:51 -72.73,-125.49 124.68 6.42 74
7 05/09/2021 08:40:22 72.72, 41.76 55.33 05/09/2021 08:41:31 72.72, 41.83 55.31 2.25 69
8 05/09/2021 09:31:05 -72.72,-150.92 124.69 05/09/2021 09:32:12 -72.71,-150.87 124.71 1.93 67
9 05/09/2021 10:21:50 72.67, 16.48 55.26 05/09/2021 10:22:52 72.70, 16.45 55.27 3.10 62
10 05/09/2021 11:12:34 -72.67,-176.19 124.76 05/09/2021 11:13:34 -72.68,-176.25 124.75 2.57 60
11 05/09/2021 12:03:20 72.68, -8.90 55.24 05/09/2021 12:04:14 72.68, -8.94 55.23 1.34 54
12 05/09/2021 12:54:04 -72.67, 158.42 124.77 05/09/2021 12:54:56 -72.66, 158.36 124.79 2.30 52
13 05/09/2021 13:44:50 72.68, -34.28 55.23 05/09/2021 13:45:36 72.65, -34.32 55.20 3.19 46
14 05/09/2021 14:35:34 -72.68, 133.04 124.79 05/09/2021 14:36:17 -72.69, 133.08 124.78 2.20 43
15 05/09/2021 15:26:20 72.68, -59.66 55.21 05/09/2021 15:26:57 72.68, -59.60 55.20 1.99 37
16 05/09/2021 16:17:04 -72.68, 107.66 124.80 05/09/2021 16:17:39 -72.67, 107.70 124.82 1.73 35
17 05/09/2021 17:07:49 72.64, -84.94 55.14 05/09/2021 17:08:19 72.66, -84.99 55.17 3.15 30
18 05/09/2021 17:58:33 -72.63, 82.38 124.87 05/09/2021 17:59:01 -72.65, 82.31 124.86 2.76 28
19 05/09/2021 18:49:19 72.64,-110.32 55.13 05/09/2021 18:49:41 72.64,-110.37 55.13 1.59 22
20 05/09/2021 19:40:03 -72.64, 57.00 124.89 05/09/2021 19:40:23 -72.63, 56.93 124.90 2.44 20
21 05/09/2021 20:30:49 72.64,-135.71 55.12 05/09/2021 20:31:02 72.67,-135.65 55.14 3.27 13
22 05/09/2021 21:21:33 -72.64, 31.62 124.90 05/09/2021 21:21:44 -72.66, 31.65 124.89 2.13 11
23 05/09/2021 22:12:19 72.65,-161.09 55.10 05/09/2021 22:12:24 72.65,-161.04 55.10 1.75 5
24 05/09/2021 23:03:03 -72.65, 6.23 124.92 05/09/2021 23:03:06 -72.64, 6.27 124.93 1.55 3
25 05/09/2021 23:53:48 72.60, 173.63 55.03 05/09/2021 23:53:46 72.63, 173.58 55.06 3.21 2
26 05/10/2021 00:44:32 -72.60, -19.05 124.98 05/10/2021 00:44:28 -72.61, -19.12 124.96 2.94 4
27 05/10/2021 01:35:18 72.60, 148.25 55.02 05/10/2021 01:35:08 72.60, 148.20 55.02 1.82 10
28 05/10/2021 02:26:02 -72.60, -44.43 125.00 05/10/2021 02:25:50 -72.59, -44.50 125.00 2.58 12
29 05/10/2021 03:16:48 72.61, 122.87 55.00 05/10/2021 03:16:29 72.63, 122.91 55.03 3.08 19



Historial Predications of SNOs between NOAA-20 and METOP-C
